Weather History for KCGI - June, 2012

Change the Weather History Date:

Saturday, June 2, 2012

  Actual Average Record
Temperature  
Mean Temperature 64 °F 72 °F  
Max Temperature 81 °F 83 °F 94 °F (1991)
Min Temperature 46 °F 61 °F 46 °F (2012)
Degree Days  
Heating Degree Days 1 0  
Month to date heating degree days 5 1  
Since 1 June heating degree days 5 1  
Since 1 July heating degree days 3346 4387  
Cooling Degree Days 0 7  
Month to date cooling degree days 0 14  
Year to date cooling degree days 345 166  
Since 1 June cooling degree days 0 14  
Growing Degree Days 13 (Base 50)    
Moisture  
Dew Point 48 °F    
Average Humidity 66    
Maximum Humidity 100    
Minimum Humidity 31    
Precipitation  
Precipitation 0.00 in 0.13 in 0.83 in (2003)
Month to date precipitation 0.00 0.26  
Year to date precipitation 10.13 21.36  
Sea Level Pressure  
Sea Level Pressure 29.91 in    
Wind  
Wind Speed 4 mph (WSW)    
Max Wind Speed 18 mph    
Max Gust Speed 23 mph    
Visibility 10 miles    
Events      
T = Trace of Precipitation, MM = Missing Value Source: NWS Daily Summary

Daily Weather History Graph

Daily Weather History Graph

Search for Another Location

Airport or City:

Trip Planner

Search our weather history database for the weather conditions in past years. The results will help you decide how hot, cold, wet, or windy it might be!

Date:

Astronomy

Jun. 02, 2012 Rise Set
Actual Time 5:39 AM CDT 8:13 PM CDT
Civil Twilight 5:08 AM CDT 8:44 PM CDT
Nautical Twilight 4:30 AM CDT 9:22 PM CDT
Astronomical Twilight 3:48 AM CDT 10:04 PM CDT
Moon 6:30 PM CDT (6/2) 3:55 AM CDT (6/2)
Length of Visible Light 15h 35m
Length of Day
14h 34m
Waxing Gibbous, 95% of the Moon is Illuminated
Jun 2
Waxing Gibbous
Jun 4
Full
Jun 11
Last Quarter
Jun 19
New
Jun 26
First Quarter

Hourly Weather History & Observations

Time (CDT) Temp. Dew Point Humidity Pressure Visibility Wind Dir Wind Speed Gust Speed Precip Events Conditions
12:53 AM 50.0 °F 46.0 °F 86% 29.93 in 10.0 mi West 3.5 mph - N/A   Clear
1:53 AM 48.0 °F 44.1 °F 86% 29.94 in 10.0 mi Calm Calm - N/A   Clear
2:53 AM 48.9 °F 46.0 °F 90% 29.92 in 10.0 mi Calm Calm - N/A   Clear
3:53 AM 46.9 °F 46.0 °F 97% 29.92 in 10.0 mi Calm Calm - N/A   Partly Cloudy
4:53 AM 48.0 °F 46.0 °F 93% 29.93 in 10.0 mi Calm Calm - N/A   Overcast
5:53 AM 48.9 °F 46.0 °F 90% 29.96 in 10.0 mi Calm Calm - N/A   Scattered Clouds
6:53 AM 53.1 °F 50.0 °F 89% 29.98 in 10.0 mi Calm Calm - N/A   Overcast
7:53 AM 57.0 °F 50.0 °F 77% 29.99 in 10.0 mi Calm Calm - N/A   Partly Cloudy
8:53 AM 62.1 °F 50.0 °F 65% 29.99 in 10.0 mi Calm Calm - N/A   Clear
9:53 AM 66.9 °F 48.9 °F 52% 29.99 in 10.0 mi Variable 5.8 mph - N/A   Clear
10:53 AM 71.1 °F 46.9 °F 42% 29.96 in 10.0 mi SSW 8.1 mph - N/A   Scattered Clouds
11:53 AM 71.1 °F 46.0 °F 41% 29.96 in 10.0 mi West 6.9 mph - N/A   Overcast
12:53 PM 73.0 °F 46.0 °F 38% 29.93 in 10.0 mi SW 9.2 mph - N/A   Overcast
1:53 PM 77.0 °F 45.0 °F 32% 29.90 in 10.0 mi SW 10.4 mph 18.4 mph N/A   Partly Cloudy
2:53 PM 78.1 °F 46.0 °F 32% 29.87 in 10.0 mi WSW 10.4 mph 17.3 mph N/A   Clear
3:53 PM 80.1 °F 48.9 °F 34% 29.86 in 10.0 mi West 16.1 mph 23.0 mph N/A   Partly Cloudy
4:53 PM 80.1 °F 48.0 °F 32% 29.84 in 10.0 mi West 11.5 mph 20.7 mph N/A   Clear
5:53 PM 79.0 °F 48.9 °F 35% 29.83 in 10.0 mi WSW 3.5 mph - N/A   Clear
6:53 PM 79.0 °F 48.0 °F 34% 29.83 in 10.0 mi WSW 8.1 mph - N/A   Scattered Clouds
7:53 PM 75.9 °F 53.1 °F 45% 29.85 in 10.0 mi Calm Calm - N/A   Mostly Cloudy
8:53 PM 68.0 °F 52.0 °F 56% 29.85 in 10.0 mi SSW 3.5 mph - N/A   Clear
9:53 PM 64.9 °F 54.0 °F 68% 29.87 in 10.0 mi Calm Calm - N/A   Clear
10:53 PM 63.0 °F 53.1 °F 70% 29.88 in 10.0 mi Calm Calm - N/A   Clear
11:53 PM 62.1 °F 53.1 °F 72% 29.89 in 10.0 mi Calm Calm - N/A   Clear